Dewpoint
30 32 32 34 27 20 19 22 22 22 24 26 26 27 27 28 28 27 26 27 36 42 44 47 49 49 50 51 52 50 49 48 48 50 52 52 54 55 56 56 56 56 55 55
27 30 32 31 26 23 25 24 25 26 24 28 29 29 28 28 28 27 28 27 27 34 42 45 47 48 50 50 51 52 51 50 50 51 52 52 54 54 56 56 55 55 53 52
25 30 31 27 23 21 21 27 26 24 24 26 26 27 27 28 28 27 27 27 27 28 33 40 44 47 48 49 51 52 52 52 52 52 52 54 54 55 55 54 53 52 52 51
28 29 23 27 26 24 23 24 25 26 26 27 27 27 27 28 28 28 27 27 28 32 41 48 50 50 51 51 52 52 52 51 51 52 52 52 52 52 51 50 49 49 48 47
24 27 29 30 29 26 25 24 27 27 28 27 28 25 23 27 26 26 27 33 44 48 49 49 49 50 50 50 50 50 49 50 50 51 50 49 48 47 46 46 45 43 42 41
29 25 19 28 33 34 32 27 30 30 29 28 26 24 25 28 34 39 44 47 48 48 48 48 49 50 50 49 48 48 47 47 47 47 46 45 45 44 44 42 39 37 35 35
27 27 29 33 35 37 29 28 32 35 30 29 26 28 29 39 45 48 48 47 47 47 46 47 48 48 47 46 45 45 45 44 44 44 43 43 40 39 37 34 32 31 29 29
30 28 25 33 36 36 34 37 37 35 35 34 30 31 35 44 47 47 47 47 46 46 45 46 47 46 44 43 43 41 38 37 37 38 38 36 35 34 33 31 30 28 28 27
31 29 30 31 28 33 39 37 37 36 37 38 35 35 40 47 47 47 46 46 46 45 43 43 44 44 41 37 35 34 34 33 32 32 32 33 32 32 31 30 29 28 26 25
31 28 30 30 33 34 36 37 39 38 38 39 38 41 46 47 46 45 44 41 39 39 37 35 35 34 33 32 32 31 30 29 28 28 28 29 29 30 30 30 29 28 26 25
30 31 31 30 28 32 35 38 37 39 39 40 41 43 45 43 37 34 32 30 30 29 28 26 26 27 27 28 27 26 24 24 26 27 27 27 27 28 27 28 30 28 27 26
25 29 31 30 33 35 36 38 39 38 38 41 43 41 35 30 29 29 28 28 27 26 26 26 26 26 27 27 27 27 28 29 29 29 28 26 26 26 29 28 28 27 27 26
27 33 32 32 38 39 41 37 35 34 37 42 39 32 29 27 27 27 27 27 26 27 27 27 27 27 28 28 28 28 27 27 26 26 26 25 25 25 23 25 26 26 26 25
31 31 27 32 36 36 36 34 33 32 30 28 27 26 26 26 26 26 25 25 25 25 25 25 25 25 26 25 25 24 23 23 23 23 22 22 22 22 21 21 20 21 21 22
29 31 31 36 35 32 32 31 31 29 28 27 26 26 25 25 24 24 24 24 23 22 22 21 21 22 24 23 23 22 22 21 21 19 18 18 18 17 18 17 16 16 15 15
37 38 38 36 33 31 30 29 27 26 25 24 23 22 22 21 20 20 21 21 19 18 19 19 19 21 22 20 19 18 16 15 14 15 15 14 14 13 13 13 13 11 10 10
36 37 35 33 29 27 26 25 24 23 23 22 21 20 19 18 18 17 17 18 18 18 18 18 18 18 17 16 15 15 14 13 13 13 13 12 11 10 9 9 9 9 8 8
33 32 34 31 26 24 24 24 23 22 21 21 20 19 17 15 14 15 15 16 16 16 16 16 14 13 13 13 13 12 12 12 11 9 9 8 8 7 6 6 6 6 6 6
27 27 26 25 24 23 22 22 21 21 20 19 18 16 16 16 15 15 15 14 13 12 14 13 13 11 11 12 10 10 8 7 6 6 5 3 2 3 2 3 2 1 1 1
25 25 24 23 23 22 21 21 20 19 19 17 16 14 13 13 13 12 12 12 13 14 12 10 9 8 8 8 7 6 5 5 4 2 1 -0 -1 -2 -1 -0 -1 -2 -2 -2
24 23 22 21 21 21 20 19 18 17 17 16 14 13 12 13 13 12 9 9 11 11 9 8 8 7 7 6 5 4 2 1 -0 -1 -2 -3 -3 -3 -4 -5 -5 -5 -5 -5
22 21 20 19 19 18 19 19 18 17 16 14 13 12 11 10 10 10 10 8 7 6 6 6 5 4 4 3 2 1 0 -1 -2 -3 -4 -4 -5 -6 -7 -7 -8 -8 -8 -8
21 20 19 18 17 17 18 18 17 16 15 14 13 13 11 10 8 6 4 5 5 4 4 3 2 1 -0 -1 -2 -3 -4 -4 -4 -5 -7 -7 -8 -9 -9 -9 -9 -10 -11 -12
19 19 18 18 18 15 14 15 15 14 14 13 12 11 9 7 7 7 6 4 3 2 2 0 -0 -1 -2 -4 -5 -7 -7 -7 -7 -8 -8 -8 -9 -9 -9 -11 -11 -13 -13 -13
20 19 19 17 15 14 14 14 13 13 12 11 10 9 8 7 5 6 5 4 3 -0 -2 -2 -2 -3 -5 -7 -8 -7 -6 -7 -8 -8 -9 -9 -10 -11 -13 -14 -14 -14 -14 -14
18 17 17 17 16 15 14 13 10 10 8 7 7 7 7 7 5 3 2 1 -1 -3 -4 -4 -5 -6 -7 -7 -7 -7 -7 -7 -8 -9 -10 -11 -12 -13 -14 -14 -15 -15 -16 -16
16 16 14 13 14 14 13 11 9 8 7 6 5 5 4 2 1 -1 -2 -3 -5 -6 -6 -6 -5 -4 -5 -5 -6 -8 -8 -9 -9 -10 -12 -13 -14 -15 -15 -16 -16 -17 -16 -16
Wind_Speed
17 21 23 38 32 24 28 24 21 14 23 22 22 18 22 23 13 11 12 10 17 19 21 20 21 21 22 24 24 23 24 25 32 24 19 18 21 20 18 21 22 22 22 20
22 21 25 32 31 24 19 12 9 11 13 12 19 15 15 17 17 15 17 17 19 22 20 22 25 27 24 23 22 21 24 27 21 20 19 20 20 21 20 21 18 19 19 17
9 8 23 16 35 30 20 10 12 18 8 7 14 15 21 26 24 23 21 20 21 24 23 16 17 14 17 13 13 19 19 17 16 17 18 17 15 15 18 20 17 18 15 14
6 10 10 11 10 26 25 21 18 14 14 18 15 21 22 19 21 23 24 23 18 12 7 7 7 9 11 10 9 11 11 11 11 12 12 12 14 15 12 7 8 5 5 6
4 7 11 21 8 5 14 27 22 25 20 22 17 7 18 14 20 23 15 6 11 12 12 11 12 13 16 14 13 14 12 10 9 10 10 8 6 5 5 8 10 11 11 11
5 7 9 9 14 25 2 18 10 14 20 22 8 12 20 6 4 7 13 17 19 17 14 16 14 14 18 16 16 14 12 12 9 10 10 10 10 10 11 13 13 13 17 17
23 10 9 16 7 22 9 3 2 9 11 12 11 11 10 5 11 13 11 18 18 16 18 16 15 18 20 19 17 14 16 16 16 15 15 14 15 13 13 15 17 18 21 19
12 11 8 11 4 3 5 14 7 11 15 7 4 3 6 9 13 16 19 16 16 21 20 15 15 19 20 20 16 19 20 20 19 18 15 15 17 16 16 17 18 16 18 17
9 8 14 5 9 13 13 9 12 15 13 12 9 11 7 8 15 14 16 17 16 22 22 18 18 18 21 16 18 20 21 19 18 18 18 15 15 14 15 13 13 12 13 13
5 12 23 18 10 11 15 16 9 13 12 15 11 6 12 17 15 16 18 21 16 22 25 22 18 17 17 15 17 21 22 20 19 20 20 19 18 17 16 14 14 13 12 11
12 24 22 13 5 12 9 6 6 10 9 16 14 12 15 15 19 18 19 23 22 17 24 20 18 20 17 16 20 25 23 20 20 19 20 21 21 16 17 17 14 11 10 9
14 15 11 17 12 13 9 8 11 12 11 6 7 15 22 17 18 22 17 22 27 18 22 20 23 23 21 19 21 23 24 19 17 16 16 15 15 17 21 19 19 18 15 11
21 10 15 23 10 6 4 7 17 20 22 17 17 15 21 26 26 21 24 26 24 22 20 21 24 25 19 20 22 23 22 18 17 17 16 16 15 14 13 14 19 19 14 10
13 11 17 12 6 10 14 13 12 28 21 25 22 21 29 23 21 27 26 24 23 26 21 21 25 23 18 21 24 24 23 22 19 17 16 16 15 14 13 13 12 12 21 24
19 14 20 4 10 12 14 15 16 23 17 20 20 21 23 27 27 23 25 27 25 25 22 24 25 22 19 22 24 22 20 18 17 17 17 16 15 15 14 14 14 13 13 14
4 10 5 9 10 12 8 6 15 12 25 19 26 27 23 28 28 27 23 23 27 23 20 23 23 19 19 21 21 20 20 21 19 17 16 16 16 16 15 13 13 13 14 13
6 12 10 11 11 14 14 13 19 20 22 24 25 28 29 29 29 27 25 25 26 25 23 22 21 19 19 19 20 17 17 19 19 17 17 16 16 16 14 14 13 11 10 11
4 4 5 13 18 22 20 22 21 22 22 24 24 28 29 28 28 24 24 25 28 28 24 21 19 19 20 19 18 17 17 16 16 17 15 15 14 14 14 13 12 12 11 11
8 12 16 21 21 23 22 25 25 25 23 23 26 29 28 27 25 24 23 25 25 25 19 18 20 21 20 19 17 16 17 17 16 15 14 15 16 14 15 14 12 13 11 11
17 18 19 24 22 24 26 24 28 27 24 27 28 29 29 26 24 25 24 26 19 17 18 18 19 19 18 18 17 15 16 15 15 15 15 16 15 15 14 13 13 13 14 12
18 20 20 25 25 24 23 23 30 28 24 26 31 29 27 24 21 20 23 23 18 19 19 18 16 14 14 14 15 14 15 16 17 16 14 15 15 14 14 12 12 13 13 12
17 22 23 25 27 27 24 24 25 30 27 28 28 27 28 26 25 25 22 21 15 16 15 14 13 16 15 15 13 14 15 15 15 14 15 14 13 12 12 12 12 12 13 13
16 20 26 29 28 30 28 28 24 25 27 26 25 23 23 20 17 20 21 14 15 16 15 14 16 18 18 15 15 15 16 16 14 13 11 11 11 11 11 12 12 11 13 12
21 24 26 28 29 31 31 25 26 26 27 25 23 20 21 22 21 17 18 18 18 16 14 15 16 17 16 15 16 15 14 12 10 10 10 10 9 9 9 9 10 11 11 13
22 23 23 26 27 25 27 26 27 25 25 24 22 20 19 14 17 15 15 15 17 16 15 14 15 16 15 15 14 12 10 9 9 9 9 8 7 7 8 9 11 11 12 13
20 20 20 20 20 20 19 19 21 18 19 21 19 17 17 16 17 16 15 15 14 14 13 12 13 13 13 11 10 8 8 9 9 8 6 6 7 8 9 11 12 12 13 14
21 21 21 21 18 18 18 18 21 19 16 18 20 14 15 15 15 15 15 15 14 13 13 12 11 10 8 7 7 7 8 7 6 5 6 7 7 8 10 11 12 12 13 14
Wind_Direction
256 274 291 285 268 239 217 229 225 240 232 228 228 226 242 237 244 229 239 215 216 214 216 206 206 210 211 215 211 205 210 215 224 224 224 224 225 224 216 222 224 227 230 229
282 284 286 268 262 248 223 201 234 264 264 240 247 242 245 247 241 244 230 233 225 219 213 210 209 211 209 212 208 197 207 219 225 225 224 220 215 216 217 226 221 218 219 218
273 311 322 270 231 236 235 214 209 237 243 252 255 247 248 248 250 246 249 241 225 224 220 212 214 213 207 200 185 193 201 207 204 207 214 211 205 203 212 214 211 216 215 212
269 330 267 294 236 217 225 239 226 229 235 258 261 278 274 251 244 237 242 244 232 194 161 117 106 115 120 116 131 156 156 157 158 166 182 185 191 202 203 198 205 201 179 138
253 273 301 305 290 210 209 246 240 237 231 247 273 286 277 260 237 240 243 209 140 112 104 107 106 111 108 106 110 115 120 130 146 165 167 162 153 121 101 104 91 80 76 83
211 248 264 252 312 328 312 263 254 222 236 233 192 250 282 324 204 168 128 131 117 106 115 108 104 105 102 102 102 102 103 101 100 103 108 106 104 98 95 95 90 83 76 73
223 234 265 264 346 325 238 272 339 358 266 227 217 199 251 137 100 84 84 106 106 110 101 93 95 98 95 91 88 91 89 83 77 76 81 84 82 75 84 86 85 80 77 67
205 206 260 230 131 254 307 322 302 344 25 350 235 26 319 133 113 117 111 98 94 96 91 88 90 94 90 88 91 88 85 81 76 73 75 80 86 81 83 91 90 86 89 80
193 224 257 226 292 257 265 293 323 349 355 9 66 280 252 125 109 92 92 93 91 93 86 74 79 93 96 100 100 95 88 81 78 75 70 68 79 87 89 91 96 93 90 87
288 268 258 279 269 299 285 285 322 312 349 28 4 139 118 103 87 87 84 78 75 88 84 73 73 81 94 101 97 90 85 75 69 70 68 62 62 62 67 71 81 87 93 100
280 274 288 291 344 345 306 237 349 304 1 12 49 36 72 88 89 82 74 72 70 66 81 74 70 66 64 72 86 83 80 77 76 75 75 73 64 59 65 52 61 74 65 75
256 297 315 302 305 313 305 354 25 1 288 96 129 126 100 76 74 78 82 82 77 64 69 69 68 64 63 71 83 88 85 79 75 76 74 74 79 74 63 68 67 67 66 76
262 286 306 294 314 15 103 37 78 60 40 105 95 110 102 102 89 83 78 77 79 79 73 74 73 67 60 68 76 77 79 75 71 67 67 66 63 66 73 67 67 59 56 67
261 288 304 300 320 79 102 86 66 92 75 76 78 85 91 87 87 94 86 86 87 80 76 74 70 64 61 70 75 74 73 69 70 67 66 63 61 60 59 56 54 51 50 53
272 273 261 229 118 108 106 103 90 99 89 89 88 90 100 104 94 86 92 86 83 79 73 72 70 63 64 70 72 71 72 70 69 67 63 63 62 59 57 55 52 48 39 37
294 298 208 157 139 112 109 114 115 96 106 100 98 98 95 92 88 86 77 83 85 80 75 73 68 62 65 70 74 72 70 69 69 67 64 61 58 58 54 54 55 53 46 34
248 216 186 171 149 113 105 100 106 104 106 106 108 107 99 93 87 83 82 82 82 76 71 69 69 66 67 69 74 75 72 66 66 65 63 61 59 58 57 57 57 59 52 36
259 292 221 157 135 119 111 105 105 106 107 111 107 102 98 96 98 96 91 88 83 76 68 68 70 69 67 67 71 73 73 72 69 68 66 65 64 60 57 57 50 48 36 29
84 98 102 110 115 115 115 112 107 106 109 109 104 100 99 98 97 94 91 86 83 82 72 72 70 70 69 67 71 73 76 76 73 70 69 68 64 58 56 53 46 38 30 28
89 91 97 100 102 110 113 111 109 105 107 107 103 98 96 93 94 92 87 79 78 87 85 78 73 70 68 66 71 74 75 77 80 74 73 71 70 64 57 52 49 44 39 32
101 99 98 99 99 98 102 111 110 105 108 107 105 102 100 97 93 96 90 86 76 77 77 74 75 75 72 73 72 75 81 79 77 78 78 72 66 61 55 50 48 41 30 18
102 107 106 102 98 94 92 92 97 104 105 101 99 101 98 94 90 81 76 91 88 80 80 76 74 76 78 79 79 77 79 82 81 77 71 68 67 63 55 43 29 14 6 358
100 106 103 99 98 98 97 94 95 100 99 100 101 101 99 99 97 102 98 85 88 86 84 82 85 85 82 80 84 86 85 80 77 77 80 80 71 57 39 21 7 356 350 348
98 94 98 101 102 97 95 95 94 91 89 88 88 93 102 102 86 84 92 94 90 87 87 88 87 90 91 92 89 84 78 75 76 87 82 69 53 33 14 353 345 346 349 349
95 97 97 100 100 101 101 98 92 90 91 89 89 88 92 92 105 110 100 95 92 90 88 87 95 98 95 92 88 84 81 77 79 79 62 48 21 355 343 346 350 347 343 337
94 91 89 89 96 97 97 100 99 98 100 95 86 87 89 91 95 96 94 94 95 95 92 90 98 97 95 91 86 83 78 72 73 68 49 19 354 349 352 353 347 339 331 326
88 92 91 84 78 87 94 99 101 98 98 102 100 94 97 97 97 98 99 101 101 95 88 85 94 94 95 92 75 74 74 80 80 50 17 359 351 347 346 338 331 327 326 324